Home > Weather > Bangor > Past weeks

Flag for United Kingdom Weather for the Past 2 Weeks in Bangor, Wales, United Kingdom

Now
45 °F

Cool.


Feels Like: 37 °F
Forecast: 46 / 58 °F
Wind: 20 mph from Southwest

Location: Capel Curig

Current Time: May 3, 2016 at 10:12:54 PM

Latest Report: May 3, 2016 at 9:00 PM


Visibility: 19 mi

Pressure: 30.31 "Hg

Humidity: 83%

Dew Point: 40 °F

Location of BangorLocation

Historic Weather in Bangor — Graph

°F

Bangor Temperature Yesterday

Maximum temperature yesterday: 51 °F (at 3:00 PM)
Minimum temperature yesterday: 43 °F (at 10:00 PM)
Average temperature yesterday: 48 °F

High & Low Weather Summary for the Past Weeks

 TemperatureHumidityPressure
High61 °F (Apr 21, 4:00 PM)100% (May 1, 4:00 PM)30.49 "Hg (May 1, 4:00 PM)
Low32 °F (Apr 20, 7:00 AM)34% (Apr 21, 1:00 PM)29.71 "Hg (Apr 28, 7:00 PM)
Average46 °F71%30.14 "Hg
* Reported Apr 18 8:00 PM — May 3 8:00 PM, Bangor, Weather by CustomWeather, © 2016

Note: Actual official high and low records may vary slightly from our data, if they occured in-between our weather recording intervals... More about our weather records

Advertising

Bangor Weather History for the Previous 24 Hours

Scroll right to see more
 ConditionsComfort  
Time TempWeatherWind HumidityBarometerVisibility
8:00 PM
Tue, May 3
46 °FCool.21 mph79%30.31 "Hg19 mi
7:00 PM47 °FCool.18 mph77%30.31 "Hg25 mi
6:00 PM48 °FCool.21 mph75%30.31 "Hg19 mi
5:00 PM47 °FCool.21 mph76%30.31 "Hg15 mi
4:00 PM49 °FCool.20 mph66%30.30 "Hg19 mi
3:00 PM50 °FCool.15 mph57%30.30 "Hg28 mi
2:00 PM50 °FCool.14 mph64%30.30 "Hg19 mi
1:00 PM50 °FCool.14 mph64%30.28 "Hg19 mi
11:00 AM46 °FCool.18 mph72%30.27 "Hg22 mi
10:00 AM46 °FCool.18 mph75%30.26 "Hg16 mi
9:00 AM45 °FQuite cool.20 mph75%30.25 "Hg17 mi
5:00 AM43 °FQuite cool.21 mph75%30.20 "Hg19 mi
4:00 AM43 °FQuite cool.20 mph74%30.19 "Hg17 mi
2:00 AM44 °FQuite cool.20 mph75%30.18 "Hg15 mi
1:00 AM44 °FQuite cool.18 mph76%30.17 "Hg25 mi
12:00 AM45 °FCool.22 mph73%30.15 "Hg25 mi
11:00 PM
Mon, May 2
45 °FCool.18 mph71%30.14 "Hg22 mi
10:00 PM43 °FQuite cool.16 mph75%30.13 "Hg25 mi
Weather by CustomWeather, © 2016

See weather overviewHow to use our weather pages